Weather in Villa La Angostura

Argentina     40°44′57″S   71°38′49″W
temp.,
°C
wind,
m/s
gust,
m/s
humid.,
%
clouds,
%
prec.,
mm/h
press.,
hPa
HPBL,
m
8 may, sat
sat800:00+4nw2290100 0.0 101932
03:00+3wnw1193100 0.0 102018
06:00+5nw1184100 0.0 101836
09:00+4wnw2395100 0.6 1019103
12:00+6wnw2492100 1.1 1019385
15:00+7wnw2584100 1.9 1018717
18:00+5wnw2396100 2.9 1019373
21:00+5nw2698100 6.4 1020691
9 may, sun
sun900:00+4wnw2695100 0.7 1022555
03:00+4wnw2594100 1.0 1022407
06:00+1wnw349634 0.1 1025174
09:000wnw239670 0.1 1028153
12:00+3wnw357973 0.0 1027736
15:00+5w236747 0.0 1026986
18:00+4w11715 0.0 1026116
21:000wsw01900 0.0 102923
10 may, mon
mon1000:00−1e01910 0.0 103017
03:00−1ese11881 0.0 102920
06:00−1ese22891 0.0 102932
09:00−1ese22875 0.0 102934
12:00+6ese235154 0.0 1025456
15:00+10se22392 0.0 1022663
18:00+6se22580 0.0 102230
21:00+1ese117352 0.0 102517
11 may, tue
tue1100:000e1170100 0.0 102521
03:000e11716 0.0 102417
06:00−1ene11748 0.0 102316
09:00−1nne116667 0.0 102416
12:00+10nw123321 0.0 1019238
15:00+14wnw2424100 0.0 1016896
18:00+8wnw2255100 0.0 101725
21:00+5wnw2259100 0.0 101935
12 may, wed
wed1200:00+5nw2250100 0.0 101932
03:00+4nw2245100 0.0 101827
06:00+3wnw2244100 0.0 101827
09:00+2wnw224595 0.0 101923
12:00+11nw1230100 0.0 1016271
15:00+14wnw23210 0.0 1013876
18:00+10w114428 0.0 101311
21:00+4nw1155100 0.0 101617